Visalia, CA

2:36 AM PDT on October 15, 2019 (GMT -0700)
Visalia Municipal

Weather History for KVIS - August, 2019

Change the Weather History Date:

Sunday, August 11, 2019

  Actual Average Record
Temperature  
Mean Temperature 74 °F -  
Max Temperature 90 °F 97 °F 111 °F (1940)
Min Temperature 60 °F 65 °F 53 °F (1932)
Cooling Degree Days 9    
Growing Degree Days 24 (Base 50)    
Moisture  
Dew Point 57 °F    
Average Humidity 57    
Maximum Humidity 86    
Minimum Humidity 32    
Precipitation  
Precipitation 0.00 in - - ()
Sea Level Pressure  
Sea Level Pressure 29.99 in    
Wind  
Wind Speed 7 mph (WNW)    
Max Wind Speed 13 mph    
Max Gust Speed -    
Visibility 10 miles    
Events      
Averages and records for this station are not official NWS values.
T = Trace of Precipitation, MM = Missing Value Source: NWS Daily Summary

Daily Weather History Graph

Daily Weather History Graph

Search for Another Location

Airport or City:

Astronomy

Aug. 11, 2019 Rise Set
Actual Time 6:12 AM PDT 7:52 PM PDT
Civil Twilight 5:44 AM PDT 8:20 PM PDT
Nautical Twilight 5:11 AM PDT 8:53 PM PDT
Astronomical Twilight 4:35 AM PDT 9:28 PM PDT
Moon 5:32 PM PDT (8/11) 2:40 AM PDT (8/11)
Length of Visible Light 14h 35m
Length of Day
13h 40m
Waxing Gibbous, 87% of the Moon is Illuminated
Aug 11
Waxing Gibbous
Aug 15
Full
Aug 23
Last Quarter
Aug 30
New
Sep 5
First Quarter

Hourly Weather History & Observations

Time (PDT) Temp. Heat Index Dew Point Humidity Pressure Visibility Wind Dir Wind Speed Gust Speed Precip Events Conditions
12:56 AM 70.0 °F - 59.0 °F 68% 29.96 in 10.0 mi NW 9.2 mph - N/A   Clear
1:56 AM 68.0 °F - 57.0 °F 68% 29.96 in 10.0 mi NW 9.2 mph - N/A   Clear
2:56 AM 66.0 °F - 57.0 °F 73% 29.96 in 10.0 mi WNW 9.2 mph - N/A   Clear
3:56 AM 64.9 °F - 57.0 °F 75% 29.97 in 10.0 mi WNW 3.5 mph - N/A   Clear
4:56 AM 63.0 °F - 57.0 °F 81% 29.98 in 10.0 mi Calm Calm - N/A   Clear
5:56 AM 60.1 °F - 55.9 °F 86% 30.00 in 10.0 mi SW 6.9 mph - N/A   Clear
6:56 AM 62.1 °F - 57.0 °F 84% 30.03 in 10.0 mi West 3.5 mph - N/A   Clear
7:56 AM 64.9 °F - 57.9 °F 78% 30.04 in 10.0 mi West 4.6 mph - N/A   Clear
8:56 AM 69.1 °F - 57.0 °F 65% 30.06 in 10.0 mi Calm Calm - N/A   Clear
9:56 AM 72.0 °F - 57.9 °F 61% 30.06 in 10.0 mi West 3.5 mph - N/A   Clear
10:56 AM 75.0 °F - 59.0 °F 57% 30.06 in 10.0 mi Variable 3.5 mph - N/A   Clear
11:56 AM 78.1 °F - 59.0 °F 52% 30.04 in 10.0 mi Variable 3.5 mph - N/A   Clear
12:56 PM 82.0 °F 82.4 °F 60.1 °F 47% 30.02 in 10.0 mi WSW 8.1 mph - N/A   Clear
1:56 PM 84.9 °F 84.8 °F 60.1 °F 43% 29.99 in 10.0 mi WNW 11.5 mph - N/A   Clear
2:56 PM 87.1 °F 86.1 °F 57.9 °F 37% 29.98 in 10.0 mi WNW 12.7 mph - N/A   Clear
3:56 PM 88.0 °F 86.9 °F 57.9 °F 36% 29.95 in 10.0 mi NW 9.2 mph - N/A   Clear
4:56 PM 88.0 °F 86.7 °F 57.0 °F 35% 29.94 in 10.0 mi WNW 10.4 mph - N/A   Clear
5:56 PM 87.1 °F 85.3 °F 55.0 °F 33% 29.94 in 10.0 mi WNW 11.5 mph - N/A   Clear
6:56 PM 84.9 °F - 52.0 °F 32% 29.93 in 10.0 mi WNW 9.2 mph - N/A   Clear
7:56 PM 80.1 °F 80.0 °F 54.0 °F 40% 29.94 in 10.0 mi WNW 4.6 mph - N/A   Clear
8:56 PM 78.1 °F - 54.0 °F 43% 29.96 in 10.0 mi WNW 8.1 mph - N/A   Clear
9:56 PM 75.0 °F - 55.0 °F 50% 29.97 in 10.0 mi WNW 6.9 mph - N/A   Clear
10:56 PM 70.0 °F - 55.9 °F 61% 29.97 in 10.0 mi WNW 3.5 mph - N/A   Clear
11:56 PM 69.1 °F - 55.9 °F 63% 29.97 in 10.0 mi WNW 4.6 mph - N/A   Clear